Temperature
22 21 20 20 20 19 19 19 18 18 18 17 17 17 17 16 16 16 16 16 16 16 16 15 15 15 15 15 15 15 15 15 15 15 15 15 15 15 15 15 15 14 14
22 21 20 20 20 19 19 19 18 18 18 17 17 17 17 16 16 16 16 16 16 16 15 15 15 15 15 15 15 15 14 15 15 15 15 15 15 15 15 15 14 14 14
22 21 20 20 19 19 19 18 18 18 18 17 17 17 16 16 16 16 16 16 16 16 15 15 15 15 15 15 14 14 14 14 15 15 15 15 15 15 15 14 14 14 14
22 21 20 19 19 19 18 18 18 18 17 17 17 17 16 16 16 16 15 15 15 15 15 15 15 15 15 14 14 14 14 14 14 14 14 15 15 15 14 14 14 14 14
22 21 20 19 19 18 18 18 18 18 17 17 17 17 16 16 16 16 15 15 15 15 15 15 15 15 15 14 14 14 14 14 14 14 14 14 14 15 14 14 14 14 14
22 21 20 19 19 18 18 18 17 17 17 17 17 16 16 16 16 15 15 15 15 15 15 15 15 15 14 14 14 14 14 14 14 14 14 14 14 14 14 14 14 14 14
22 21 20 19 19 18 18 17 17 17 17 17 17 16 16 16 16 15 15 15 15 15 15 15 14 14 14 14 14 14 14 14 14 14 14 14 14 14 14 14 14 14 13
22 21 20 19 18 18 18 17 17 17 17 17 17 16 16 16 16 15 15 15 15 15 14 14 14 14 14 14 14 14 14 13 13 13 13 14 14 14 14 14 13 13 13
21 21 20 19 19 18 18 17 17 17 17 17 16 16 16 16 16 15 15 15 15 14 14 14 14 14 14 14 14 13 13 13 13 13 13 13 13 13 13 13 13 13 13
21 20 20 19 19 18 18 17 17 17 17 16 16 16 16 16 15 15 15 15 15 15 14 14 14 14 14 14 14 13 13 13 13 13 13 13 13 13 13 13 13 13 13
20 20 19 19 18 18 17 17 17 17 16 16 16 16 16 16 15 15 15 15 15 14 14 14 14 14 14 14 13 13 13 13 13 13 13 13 13 13 13 13 13 13 13
20 19 19 18 18 18 17 17 16 16 16 16 16 15 15 15 15 15 15 14 14 14 14 14 14 14 14 13 13 13 13 13 13 12 12 12 12 12 12 12 12 12 12
20 19 18 18 18 17 17 16 16 16 16 16 15 15 15 15 15 14 14 14 14 14 14 14 14 14 13 13 13 13 13 13 13 12 12 12 12 12 12 12 12 12 12
19 18 18 17 17 17 16 16 16 15 15 15 15 15 15 14 14 14 14 14 14 14 13 13 13 13 13 13 13 13 13 13 12 12 12 12 12 12 12 12 12 11 11
19 18 18 17 17 16 16 16 15 15 15 15 15 14 14 14 14 14 14 13 13 13 13 13 13 13 13 13 13 13 13 12 12 12 12 12 12 12 12 12 11 11 11
18 18 17 17 17 16 16 15 15 15 15 14 14 14 14 14 14 13 13 13 13 13 13 13 12 13 12 12 13 13 12 12 12 12 12 12 12 12 12 12 11 11 11
18 17 17 17 16 16 15 15 15 14 14 14 14 13 13 13 13 13 13 13 12 12 12 12 12 12 12 12 12 12 12 12 12 12 12 12 12 12 11 11 11 11 11
17 17 17 16 16 16 15 15 14 14 14 14 13 13 13 13 13 12 12 12 12 12 12 12 12 12 12 12 12 12 12 12 12 11 11 11 11 11 11 11 11 11 11
16 16 16 16 16 15 15 15 14 14 13 13 13 13 13 12 12 12 12 12 11 11 11 11 11 11 11 11 12 11 11 11 11 11 11 11 11 11 11 11 11 11 11
15 15 15 15 15 15 15 14 14 13 13 13 12 12 12 12 12 12 11 11 11 11 11 11 11 11 11 11 11 11 11 11 11 10 11 11 11 11 11 10 10 10 10
14 14 14 14 14 14 14 14 13 13 13 12 12 12 12 11 11 11 11 11 11 10 10 10 10 11 11 11 11 11 10 10 10 10 10 10 10 10 10 10 10 10 10
13 13 13 13 13 13 13 13 13 13 12 12 11 11 11 11 11 11 11 10 10 10 10 10 10 10 10 10 10 10 10 10 10 10 10 10 10 10 10 10 10 9 9
12 12 12 12 12 12 13 13 12 12 12 11 11 11 11 11 11 10 10 10 10 10 10 9 9 9 10 10 10 10 10 9 9 9 9 9 9 9 9 9 9 9 9
12 12 12 12 12 12 12 12 12 12 11 11 11 10 10 10 10 10 10 10 10 9 9 9 9 9 9 9 9 9 9 9 9 9 9 9 9 9 9 9 9 8 8
11 11 11 11 11 11 11 11 11 11 11 11 10 10 9 9 9 9 9 9 9 9 9 9 9 9 9 9 9 9 9 9 8 8 8 8 8 8 8 8 8 8 8
10 10 10 10 10 10 10 10 10 10 10 10 10 9 9 9 9 9 9 8 8 9 8 9 8 8 8 8 8 8 8 8 8 8 7 7 7 7 7 7 7 7 7
Wind_Speed
8 8 7 6 5 5 5 5 5 4 4 3 2 3 2 2 2 2 3 3 4 5 4 2 2 3 2 2 2 2 2 1 1 2 1 1 1 2 1 2 2 3 4
8 8 7 6 4 5 4 5 5 5 5 3 2 2 2 1 2 2 2 2 3 4 2 2 2 2 2 2 2 2 1 2 2 1 1 0 2 2 1 2 2 2 2
8 9 8 7 5 4 4 4 5 5 5 5 2 2 2 2 2 2 1 1 2 3 2 2 2 2 2 1 1 1 1 1 2 1 1 1 0 1 1 1 2 2 1
6 7 8 8 7 5 4 4 4 5 5 5 4 3 3 2 2 2 1 1 2 3 2 2 2 1 1 1 1 1 1 1 1 2 1 0 1 1 0 2 1 2 2
7 8 8 8 7 6 4 4 5 5 5 4 4 3 3 2 2 2 2 1 1 2 2 1 0 0 1 1 1 1 1 0 1 1 1 1 1 1 1 1 1 1 1
7 7 8 7 7 6 5 4 5 5 5 5 5 5 4 3 2 2 3 2 1 1 2 2 1 1 1 1 1 1 1 1 1 1 1 0 0 1 0 0 0 0 0
8 7 8 8 7 7 6 5 5 5 4 5 5 5 4 3 3 2 3 2 1 1 2 2 2 2 1 1 1 1 1 2 1 1 1 1 1 1 0 1 0 0 0
6 7 8 8 8 8 7 6 6 5 4 4 4 4 4 3 2 3 3 3 2 2 3 3 3 3 2 2 1 1 2 2 2 2 1 1 2 0 0 1 1 0 1
5 6 8 8 7 8 7 7 6 5 4 4 4 3 3 3 3 3 3 3 3 2 3 3 4 3 3 3 2 2 2 2 1 2 2 1 1 0 0 1 2 2 1
5 5 6 6 7 7 6 7 6 6 4 3 3 3 3 3 3 3 2 3 4 4 3 3 3 3 3 3 3 2 2 2 2 1 1 1 1 1 0 0 0 1 2
3 5 5 5 5 5 5 5 5 5 4 4 3 3 3 2 2 3 3 3 3 3 3 3 3 3 3 3 3 3 3 3 2 2 2 2 1 1 1 0 0 0 1
2 3 4 5 5 5 4 4 4 4 4 3 3 3 3 3 2 2 2 2 2 2 2 3 3 3 3 3 3 4 4 4 3 3 2 3 2 2 2 2 1 1 1
3 3 3 4 4 4 4 4 3 3 3 3 3 2 3 3 3 3 2 2 2 2 2 2 2 3 2 2 3 4 4 4 4 3 3 3 3 2 2 2 2 1 1
3 2 2 3 4 4 4 3 3 3 2 2 2 2 3 2 2 2 2 2 2 2 3 2 2 2 3 2 2 2 3 4 3 3 3 3 3 3 3 2 2 1 1
2 2 2 2 3 4 4 3 3 3 3 3 2 2 2 2 2 2 2 2 2 2 2 2 2 2 2 1 1 2 3 3 3 3 3 3 3 3 3 2 1 1 2
1 0 2 2 3 3 3 3 3 3 3 3 3 2 2 2 2 2 2 2 2 2 1 1 1 1 1 0 0 1 2 2 3 3 3 3 4 4 4 3 3 3 3
2 2 2 2 2 4 4 4 4 3 3 3 3 2 2 2 2 2 1 2 2 1 1 1 2 2 1 1 1 1 2 2 2 2 2 2 2 3 3 4 4 4 5
4 3 2 1 2 2 3 4 3 4 4 3 3 3 3 2 2 2 2 2 2 2 2 2 1 1 2 2 0 1 2 3 3 3 3 2 2 2 2 2 3 3 3
4 3 3 3 2 2 3 4 4 4 3 3 3 2 2 2 2 3 2 2 2 2 2 2 2 1 1 2 1 1 2 2 3 2 1 1 2 2 2 2 2 1 1
4 3 3 3 2 1 2 3 4 4 3 3 2 2 2 3 3 3 3 2 2 3 2 2 2 2 2 2 2 2 2 3 2 1 1 1 1 1 3 2 2 2 1
4 3 3 3 2 2 0 2 3 3 2 2 2 2 2 3 3 3 3 2 3 3 2 2 2 2 2 3 3 3 2 2 2 1 1 0 1 2 2 2 2 2 1
3 3 3 2 2 1 1 1 1 1 2 1 1 1 2 2 2 2 2 2 2 3 2 2 2 1 2 3 3 3 2 0 1 1 1 1 1 1 1 2 2 1 0
3 3 3 3 2 1 1 1 0 1 2 2 1 1 1 1 2 2 2 2 2 2 2 2 2 2 1 2 3 3 2 1 1 0 1 1 2 2 2 3 2 1 1
3 3 3 3 3 2 2 1 1 0 1 2 2 1 1 1 1 1 2 2 2 3 3 3 3 2 1 1 1 1 2 2 2 1 1 1 2 2 2 2 1 1 2
3 2 2 2 3 3 1 1 1 1 1 1 2 1 1 1 1 0 1 2 2 3 3 3 3 3 3 2 3 2 2 3 2 1 1 1 1 1 1 1 1 1 1
3 2 2 2 2 3 2 2 1 1 2 1 1 1 1 1 1 1 0 0 2 2 3 2 2 1 2 3 3 3 3 3 3 2 2 2 2 2 2 2 2 1 1
Wind_Direction
163 153 148 145 146 138 140 140 138 136 121 109 106 106 97 89 88 93 85 61 59 72 88 84 73 82 81 66 52 61 36 355 358 49 35 0 92 110 132 95 85 83 98
161 148 151 148 151 143 150 145 138 133 124 125 125 125 130 118 102 94 88 69 65 68 76 102 100 96 93 67 56 57 33 341 356 47 75 37 0 356 116 111 120 95 88
171 161 158 149 152 151 151 146 141 135 132 129 119 104 95 84 88 94 98 84 76 76 60 56 84 106 118 115 103 96 89 343 325 2 83 96 180 290 316 194 130 122 100
171 159 154 158 159 157 147 149 143 140 136 134 131 136 142 168 165 153 153 176 126 101 75 66 73 96 103 115 186 103 100 61 315 328 348 312 127 131 312 325 66 130 132
166 164 159 157 154 151 151 154 147 140 138 143 151 173 168 181 159 142 137 137 136 127 129 104 108 138 130 145 139 99 98 174 250 302 322 350 3 298 148 222 298 6 150
160 159 157 149 150 148 150 155 153 146 152 164 171 185 174 171 148 141 145 165 166 174 176 181 184 177 177 179 157 129 175 220 272 309 315 142 220 266 185 218 231 197 277
166 160 152 153 154 153 157 159 150 152 161 177 181 177 172 171 170 174 169 170 180 186 204 188 197 198 204 194 150 148 214 215 223 257 282 288 268 224 153 96 320 342 270
163 161 154 157 160 159 161 162 167 171 175 187 180 177 171 174 190 196 183 181 192 196 200 193 198 203 193 190 172 200 228 220 221 236 238 290 291 296 157 147 131 7 327
151 153 155 159 160 163 164 166 169 170 180 189 181 182 174 184 199 204 200 187 194 203 205 202 199 195 193 192 186 207 228 232 245 232 217 222 261 309 292 140 148 158 198
149 150 157 161 164 166 168 169 175 176 177 178 178 182 183 193 200 209 209 201 201 198 203 207 195 191 193 190 189 201 230 209 241 235 204 214 226 221 249 359 94 149 157
147 151 154 158 158 160 163 170 175 175 175 182 189 187 187 199 207 210 217 215 216 207 194 196 199 202 196 191 185 198 216 222 234 234 208 216 207 176 191 160 93 108 119
121 144 155 158 159 162 165 171 180 181 179 187 193 185 195 196 206 227 227 214 219 227 218 207 199 203 203 195 187 202 211 218 224 222 211 216 199 194 191 172 195 207 193
128 132 147 154 155 161 162 168 172 173 173 179 196 198 203 199 204 217 234 237 227 223 227 223 210 199 193 203 215 207 210 219 218 206 205 215 190 204 205 189 194 209 206
132 137 157 163 164 167 165 167 164 164 167 175 196 212 216 204 217 216 215 229 228 220 230 232 214 203 193 209 220 211 218 221 213 199 202 213 196 200 197 197 194 193 182
125 143 188 191 181 169 167 173 177 182 182 181 205 223 225 203 202 204 209 224 228 234 224 232 205 196 195 220 228 229 233 219 212 211 208 204 195 182 174 173 179 180 194
78 111 234 220 192 181 182 179 188 197 190 193 213 221 225 194 196 216 204 210 220 232 210 225 202 196 231 257 230 294 257 236 221 222 217 202 182 184 186 192 195 191 196
330 268 249 236 225 201 189 185 193 199 196 199 210 207 214 199 199 227 219 214 205 211 225 209 170 165 183 213 238 257 256 253 251 241 224 222 183 170 191 203 204 213 218
335 326 301 266 256 232 189 181 186 198 198 200 206 205 202 204 204 208 213 224 232 206 217 236 207 183 180 156 188 271 245 254 250 236 225 205 190 190 171 184 194 210 213
337 340 329 305 268 232 191 183 191 195 193 196 203 204 203 203 206 210 215 228 227 217 213 215 222 215 190 178 187 210 245 253 249 244 221 180 172 164 139 156 186 201 260
355 347 328 313 302 275 189 187 189 188 188 193 202 205 205 210 213 211 216 226 215 214 217 215 207 199 195 193 190 200 230 247 249 231 146 115 138 135 143 166 180 210 249
358 351 341 330 317 326 238 195 191 192 184 187 202 201 204 213 217 215 212 213 214 209 217 223 214 198 185 186 189 190 218 223 232 214 185 142 95 106 142 156 181 219 249
358 358 352 340 340 343 315 230 214 174 142 156 185 202 214 222 222 204 219 219 213 206 213 233 233 217 191 181 199 197 206 316 242 237 196 182 136 141 165 189 222 215 119
350 359 354 344 338 351 347 295 289 110 134 147 189 209 216 212 198 196 200 210 217 216 218 223 226 218 186 182 189 197 206 220 227 285 97 131 156 147 191 211 219 209 161
348 350 349 350 343 351 354 338 348 341 177 168 183 196 210 218 196 191 195 201 220 223 218 218 223 224 201 163 179 193 194 191 205 237 198 153 192 205 213 217 217 194 180
333 335 335 333 329 333 329 321 339 317 268 196 183 195 200 198 163 142 222 214 221 218 214 218 213 201 207 204 177 183 195 186 186 184 174 177 170 195 213 195 196 181 174
325 332 337 329 325 336 336 324 312 283 266 220 190 176 171 176 166 166 360 347 200 179 175 174 176 202 178 155 147 150 161 166 167 162 189 201 196 196 204 197 197 196 193
Height
1512 1514 1516 1519 1521 1522 1524 1525 1527 1528 1529 1530 1531 1532 1533 1534 1535 1536 1536 1537 1537 1538 1538 1539 1539 1539 1539 1539 1539 1540 1540 1540 1540 1540 1540 1541 1541 1541 1541 1541 1541 1541 1541
1510 1512 1515 1517 1519 1521 1523 1524 1525 1527 1528 1529 1530 1531 1532 1533 1534 1535 1535 1536 1536 1537 1537 1538 1538 1538 1538 1538 1539 1539 1539 1539 1540 1540 1540 1540 1542 1541 1541 1541 1541 1541 1541
1507 1510 1512 1515 1517 1519 1521 1522 1524 1525 1527 1528 1529 1530 1531 1532 1533 1534 1534 1535 1536 1536 1536 1537 1537 1537 1538 1538 1538 1538 1538 1539 1539 1540 1540 1540 1540 1541 1541 1541 1541 1541 1541
1504 1507 1510 1512 1515 1517 1519 1520 1522 1524 1525 1526 1528 1529 1530 1531 1531 1532 1533 1534 1534 1534 1535 1535 1536 1536 1536 1537 1537 1537 1538 1538 1538 1539 1539 1540 1540 1540 1540 1541 1541 1541 1540
1502 1505 1507 1510 1512 1515 1517 1519 1520 1522 1523 1524 1526 1527 1528 1529 1530 1531 1532 1532 1533 1533 1533 1534 1534 1535 1535 1535 1535 1536 1536 1537 1537 1537 1538 1538 1539 1539 1539 1539 1540 1540 1540
1500 1502 1505 1508 1510 1512 1515 1517 1518 1520 1521 1522 1524 1526 1527 1528 1529 1529 1530 1530 1531 1531 1532 1532 1532 1533 1533 1534 1534 1534 1535 1535 1536 1536 1537 1537 1537 1537 1538 1538 1538 1538 1539
1497 1500 1503 1505 1508 1510 1512 1514 1516 1517 1519 1520 1522 1523 1525 1525 1526 1527 1528 1528 1529 1529 1530 1530 1530 1531 1531 1532 1532 1532 1533 1533 1534 1534 1535 1535 1536 1536 1536 1537 1537 1537 1537
1495 1497 1500 1503 1505 1507 1510 1512 1513 1515 1517 1518 1520 1521 1522 1523 1524 1525 1525 1526 1526 1527 1527 1528 1528 1529 1529 1530 1530 1530 1531 1531 1532 1533 1533 1533 1534 1534 1535 1535 1535 1535 1536
1493 1495 1498 1501 1503 1505 1507 1509 1511 1513 1514 1516 1517 1518 1519 1520 1521 1522 1523 1523 1524 1525 1525 1525 1526 1526 1527 1527 1528 1528 1529 1529 1530 1530 1531 1531 1531 1532 1532 1533 1534 1534 1534
1492 1494 1496 1499 1501 1503 1505 1507 1509 1510 1512 1513 1514 1516 1517 1517 1518 1519 1520 1520 1521 1522 1522 1522 1523 1523 1524 1524 1525 1526 1526 1527 1528 1528 1529 1529 1529 1530 1530 1531 1531 1532 1532
1491 1493 1495 1497 1499 1501 1502 1504 1506 1508 1509 1510 1512 1513 1514 1514 1515 1516 1517 1517 1518 1519 1519 1519 1520 1520 1521 1522 1522 1523 1524 1524 1525 1526 1526 1526 1527 1527 1528 1528 1529 1530 1530
1491 1492 1494 1495 1497 1499 1500 1502 1504 1505 1506 1508 1509 1510 1511 1511 1512 1513 1514 1514 1515 1515 1516 1516 1517 1517 1518 1519 1519 1520 1520 1521 1522 1523 1523 1524 1524 1524 1525 1526 1526 1527 1528
1489 1491 1492 1494 1495 1496 1498 1500 1501 1502 1503 1505 1506 1506 1507 1508 1508 1509 1510 1511 1511 1512 1512 1513 1513 1514 1515 1516 1516 1517 1517 1518 1519 1519 1520 1521 1521 1522 1522 1523 1524 1524 1525
1488 1490 1491 1492 1493 1495 1496 1497 1498 1499 1500 1501 1502 1503 1504 1505 1505 1506 1506 1507 1508 1508 1509 1510 1510 1510 1511 1512 1513 1513 1514 1515 1516 1516 1517 1517 1518 1519 1519 1520 1521 1521 1522
1487 1489 1490 1491 1492 1493 1494 1495 1496 1497 1497 1498 1499 1500 1501 1501 1502 1502 1503 1503 1504 1505 1505 1506 1506 1507 1507 1508 1509 1510 1510 1511 1512 1513 1513 1514 1514 1515 1516 1517 1517 1518 1519
1486 1488 1488 1489 1489 1490 1491 1492 1493 1494 1495 1495 1496 1497 1497 1498 1498 1499 1500 1500 1500 1501 1502 1502 1502 1503 1504 1505 1505 1506 1507 1507 1508 1509 1510 1510 1511 1512 1512 1513 1514 1515 1516
1485 1485 1486 1486 1487 1487 1488 1489 1490 1491 1492 1492 1493 1493 1494 1494 1495 1496 1496 1497 1497 1498 1498 1498 1499 1499 1500 1501 1502 1502 1503 1504 1504 1505 1506 1507 1507 1508 1509 1510 1511 1512 1513
1483 1483 1483 1484 1484 1485 1485 1486 1487 1488 1488 1489 1490 1491 1491 1491 1492 1492 1493 1493 1494 1494 1494 1495 1496 1496 1497 1497 1498 1499 1499 1500 1501 1502 1503 1503 1504 1504 1505 1506 1507 1507 1508
1481 1481 1481 1481 1481 1481 1482 1483 1484 1485 1485 1486 1486 1487 1488 1488 1488 1489 1489 1490 1490 1491 1491 1492 1492 1493 1493 1494 1494 1495 1495 1496 1497 1498 1498 1499 1500 1501 1502 1502 1503 1504 1504
1479 1478 1478 1478 1478 1478 1479 1480 1481 1481 1482 1482 1483 1484 1484 1484 1484 1485 1486 1486 1487 1487 1488 1488 1489 1489 1490 1490 1491 1491 1491 1492 1493 1493 1494 1495 1496 1497 1498 1498 1499 1500 1500
1477 1476 1476 1476 1475 1475 1476 1477 1478 1478 1479 1479 1480 1480 1481 1481 1481 1481 1482 1483 1483 1484 1484 1484 1485 1485 1486 1487 1487 1487 1487 1488 1488 1489 1490 1491 1492 1493 1494 1494 1495 1496 1497
1475 1474 1474 1473 1473 1473 1474 1474 1475 1475 1476 1476 1477 1477 1477 1477 1478 1478 1479 1479 1480 1480 1480 1480 1480 1481 1482 1483 1483 1484 1484 1484 1485 1485 1486 1487 1488 1489 1490 1491 1492 1493 1494
1474 1473 1472 1472 1472 1471 1471 1471 1472 1472 1473 1473 1473 1473 1474 1474 1474 1475 1475 1475 1476 1476 1476 1477 1476 1476 1478 1479 1479 1480 1480 1480 1481 1481 1482 1483 1484 1485 1486 1487 1488 1488 1489
1473 1472 1471 1470 1470 1470 1469 1469 1469 1469 1469 1469 1470 1470 1470 1470 1471 1471 1471 1472 1472 1472 1472 1472 1473 1473 1473 1474 1474 1475 1476 1476 1477 1478 1479 1480 1481 1481 1482 1483 1484 1484 1485
1471 1470 1469 1469 1468 1468 1467 1467 1467 1466 1466 1466 1466 1467 1467 1467 1467 1468 1468 1468 1468 1468 1469 1469 1469 1469 1469 1470 1471 1471 1472 1472 1473 1474 1475 1476 1476 1477 1478 1479 1479 1480 1481
1469 1468 1468 1467 1466 1466 1465 1465 1465 1464 1464 1463 1463 1464 1464 1464 1464 1464 1464 1464 1464 1464 1465 1465 1466 1466 1467 1467 1467 1468 1468 1469 1470 1471 1471 1472 1472 1473 1474 1475 1476 1476 1477